Home   Weather   Colonia   Past weeks

Flag for Micronesia Past Weather in Colonia, Yap, Micronesia — Yesterday and Last 2 Weeks

Now
84 °F

Broken clouds.


Feels Like: 94 °F
Forecast: 78 / 83 °F
Wind: 5 mph from North

Location: Yap Island

Current Time: Jul 23, 2017 at 10:59:59 am

Latest Report: Jul 23, 2017 at 9:52 am


Visibility: 12 mi

Pressure: 29.80 "Hg

Humidity: 81%

Dew Point: 78 °F

Location of ColoniaLocation

Past Weather in Colonia — Graph

°F

Colonia Temperature Yesterday

Maximum temperature yesterday: 87 °F (at 1:54 pm)
Minimum temperature yesterday: 78 °F (at 5:50 am)
Average temperature yesterday: 82 °F

High & Low Weather Summary for the Past Weeks

 TemperatureHumidityPressure
High88 °F (Jul 13, 12:50 pm)100% (Jul 9, 8:56 am)29.89 "Hg (Jul 9, 8:56 am)
Low75 °F (Jul 17, 9:09 am)65% (Jul 12, 3:52 pm)29.72 "Hg (Jul 19, 4:52 pm)
Average82 °F86%29.80 "Hg
* Reported Jul 8 8:50 am — Jul 23 8:50 am, Colonia. Weather by CustomWeather, © 2017

Note: Actual official high and low records may vary slightly from our data, if they occured in-between our weather recording intervals... More about our weather records

Advertising

Colonia Weather History for the Previous 24 Hours

Scroll right to see more
 ConditionsComfort  
Time TempWeatherWind HumidityBarometerVisibility
8:50 am
Sun, Jul 23
82 °FMostly cloudy.2 mph88%29.80 "Hg12 mi
7:50 am80 °FMostly cloudy.2 mph92%29.79 "Hg12 mi
6:50 am79 °FOvercast.2 mph91%29.77 "Hg12 mi
4:50 am79 °FSprinkles. Overcast.5 mph91%29.76 "Hg9 mi
3:50 am80 °FMostly cloudy.6 mph86%29.76 "Hg12 mi
2:50 am80 °FOvercast.5 mph87%29.78 "Hg12 mi
12:53 am80 °FPartly cloudy.6 mph88%29.80 "Hg12 mi
11:55 pm
Sat, Jul 22
82 °FOvercast.9 mph84%29.81 "Hg12 mi
10:50 pm83 °FPartly cloudy.8 mph81%29.81 "Hg12 mi
9:55 pm82 °FPartly cloudy.6 mph82%29.80 "Hg12 mi
8:54 pm82 °FMostly cloudy.7 mph84%29.79 "Hg12 mi
7:53 pm82 °FMostly cloudy.5 mph84%29.78 "Hg12 mi
6:55 pm82 °FMostly cloudy.3 mph86%29.75 "Hg12 mi
5:52 pm82 °FMostly cloudy.5 mph88%29.75 "Hg12 mi
4:50 pm84 °FPartly sunny.6 mph80%29.75 "Hg12 mi
3:50 pm85 °FPartly sunny.7 mph80%29.75 "Hg12 mi
2:51 pm86 °FPartly sunny.8 mph77%29.75 "Hg12 mi
1:54 pm87 °FPartly sunny.9 mph77%29.76 "Hg12 mi
12:50 pm87 °FPartly sunny.10 mph78%29.78 "Hg12 mi
11:52 am85 °FPartly sunny.8 mph79%29.80 "Hg12 mi
10:50 am86 °FBroken clouds.12 mph77%29.79 "Hg12 mi
Weather by CustomWeather, © 2017

See weather overviewHow to use our weather pages